Stations météo

Publicité
Cherbourg, France (7024): Température de l'air & dewpoint: 17.03.2019 23:00:00 - 23.03.2019 23:00:00 (CET)Cherbourg, France (7024): Température de l'air 5cm: 17.03.2019 23:00:00 - 23.03.2019 23:00:00 (CET)Cherbourg, France (7024): Température de l'air -20cm & Température de l'air -100cm: 17.03.2019 23:00:00 - 23.03.2019 23:00:00 (CET)Cherbourg, France (7024): Vitesse du vent & gusts: 17.03.2019 23:00:00 - 23.03.2019 23:00:00 (CET)Cherbourg, France (7024): Direction du vent: 17.03.2019 23:00:00 - 23.03.2019 23:00:00 (CET)Cherbourg, France (7024): reduced air pressure: 17.03.2019 23:00:00 - 23.03.2019 23:00:00 (CET)Cherbourg, France (7024): visibility: 17.03.2019 23:00:00 - 23.03.2019 23:00:00 (CET)Cherbourg, France (7024): Ensoleillement: 17.03.2019 23:00:00 - 23.03.2019 23:00:00 (CET)Cherbourg, France (7024): Quantités de précipitations: 17.03.2019 23:00:00 - 23.03.2019 23:00:00 (CET)
Date & Time tt [°C] td [°C] tt 5cm [°C] tt -20cm [°C] tt -100cm [°C] ff [km/h] ff [knt] fx [km/h] fx [knt] dd ppp [hPa] vv [km] sd [min] rr [mm]
23.03.2019 23:00:00 8,2 7,6 8,1 9,1 9,0 15 8 25 13 E 1031,3 4,8 0 0,0
23.03.2019 22:00:00 8,4 8,0 8,3 9,1 9,0 16 9 26 14 E 1031,5 2,9 0 0,0
23.03.2019 21:00:00 8,5 8,1 8,4 9,1 9,0 16 9 34 19 E 1031,3 1,9 0 0,0
23.03.2019 20:00:00 8,6 8,2 8,6 9,1 8,9 17 9 26 14 E 1031,2 1,9 0 0,0
23.03.2019 19:00:00 8,8 8,3 8,7 9,1 9,0 15 8 24 13 E 1031,1 2,0 0 0,0
23.03.2019 18:00:00 9,0 8,4 9,2 9,0 9,0 13 7 22 12 ENE 1031,1 2,2 0 0,0
23.03.2019 17:00:00 9,4 8,8 9,9 9,0 8,9 12 7 21 12 ENE 1031,0 2,0 0 0,0
23.03.2019 16:00:00 10,6 9,0 11,3 8,9 8,9 10 5 16 9 ENE 1031,1 4,0 0 0,0
23.03.2019 15:00:00 10,5 8,8 11,8 8,9 8,9 9 5 15 8 E 1031,1 4,4 0 0,0
23.03.2019 14:00:00 10,4 9,0 11,9 8,8 8,9 9 5 13 7 NE 1031,6 3,4 0 0,0
23.03.2019 13:00:00 9,8 8,9 11,5 8,8 8,9 8 5 13 7 N 1031,6 3,1 0 0,0
23.03.2019 12:00:00 9,7 8,8 10,7 8,7 8,9 5 3 13 7 NNE 1031,7 3,2 0 0,0
23.03.2019 11:00:00 9,2 7,5 9,2 8,7 8,9 6 3 13 7 NNW 1031,9 10 0 0,0
23.03.2019 10:00:00 8,4 7,2 9,1 8,7 8,9 4 2 8 4 NW 1031,7 15 0 0,0
23.03.2019 09:00:00 8,2 7,8 7,6 8,8 8,9 0 0 4 2 N 1031,3 9 0 0,0
23.03.2019 08:00:00 7,0 6,7 5,8 8,8 8,9 0 0 3 2 N 1031,1 8 0 0,0
23.03.2019 07:00:00 6,6 6,3 5,8 8,9 8,9 0 0 3 2 N 1030,7 7 0 0,0
23.03.2019 06:00:00 6,2 6,2 1,7 8,9 8,9 3 2 7 4 W 1030,7 12 0 0,0
23.03.2019 05:00:00 4,9 4,9 -0,3 9,0 8,9 3 1 6 3 SSW 1030,4 2,4 0 0,0
23.03.2019 04:00:00 3,8 3,8 0,6 9,1 8,9 6 3 12 7 SSW 1030,3 0,3 0 0,0
23.03.2019 03:00:00 3,6 3,6 0,0 9,2 8,9 10 6 13 7 SSW 1030,3 0,3 0 0,0
23.03.2019 02:00:00 3,8 3,7 -1,8 9,3 8,9 4 2 7 4 S 1030,3 0,3 0 0,0
23.03.2019 01:00:00 4,3 4,2 -1,1 9,4 8,9 0 0 5 3 N 1030,1 0,2 0 0,0
23.03.2019 00:00:00 5,2 5,2 -2,1 9,5 8,9 3 2 5 3 W 1030,2 0,8 0 0,0
22.03.2019 23:00:00 5,0 4,4 -1,4 9,6 8,9 0 0 7 4 N 1030,2 0,5 0 0,0
22.03.2019 22:00:00 6,2 5,3 -0,9 9,6 8,9 6 3 8 4 N 1030,0 6 0 0,0
22.03.2019 21:00:00 6,5 5,3 -0,6 9,6 8,8 5 3 6 3 N 1029,9 11 0 0,0
22.03.2019 20:00:00 7,0 5,5 0,8 9,6 8,9 4 2 6 3 NNE 1029,6 11 0 0,0
22.03.2019 19:00:00 8,8 6,1 8,3 9,6 8,9 3 2 11 6 N 1028,7 13 45 0,0
22.03.2019 18:00:00 10,5 6,3 13,3 9,5 8,8 6 3 18 10 NNW 1028,2 19 60 0,0
22.03.2019 17:00:00 11,4 6,5 13,8 9,4 8,9 9 5 20 11 NW 1028,3 19 60 0,0
22.03.2019 16:00:00 12,5 8,6 14,9 9,3 8,8 8 4 18 10 N 1028,4 8 46 0,0
22.03.2019 15:00:00 11,6 8,6 14,1 9,3 8,8 5 3 12 6 NNW 1028,6 6 1 0,0
22.03.2019 14:00:00 11,4 8,1 12,5 9,2 8,8 5 3 10 5 NNW 1028,9 8 0 0,0
22.03.2019 13:00:00 10,5 7,7 12,2 9,1 8,8 6 3 11 6 ESE 1029,3 5 0 0,0
22.03.2019 12:00:00 10,8 7,5 13,2 9,1 8,8 4 2 14 8 SSE 1029,6 7 13 0,0
22.03.2019 11:00:00 10,1 8,4 10,6 9,1 8,8 7 4 14 7 ESE 1030,1 4,3 17 0,0
22.03.2019 10:00:00 8,1 7,2 8,8 9,1 8,8 0 0 6 4 N 1030,3 3,5 0 0,0
22.03.2019 09:00:00 7,7 6,9 7,7 9,1 8,8 0 0 8 5 N 1030,4 2,7 0 0,0
22.03.2019 08:00:00 7,3 6,7 7,2 9,1 8,8 2 1 7 4 ENE 1030,0 2,4 0 0,0
22.03.2019 07:00:00 7,2 6,5 7,1 9,1 8,8 0 0 3 2 N 1029,9 2,8 0 0,0
22.03.2019 06:00:00 7,2 6,5 7,1 9,2 8,8 0 0 11 6 N 1030,0 2,9 0 0,0
22.03.2019 05:00:00 7,3 6,6 7,1 9,2 8,8 8 4 16 9 S 1030,0 3,4 0 0,0
22.03.2019 04:00:00 7,4 6,5 7,2 9,2 8,8 10 6 26 14 SSE 1030,4 4,0 0 0,0
22.03.2019 03:00:00 7,7 6,8 7,6 9,3 8,8 14 8 24 13 SSE 1030,4 9 0 0,0
22.03.2019 02:00:00 7,7 6,5 7,6 9,3 8,8 17 9 27 14 SSE 1030,9 19 0 0,0
22.03.2019 01:00:00 7,9 6,4 7,7 9,3 8,8 14 8 24 13 SE 1031,5 60 0 0,0
22.03.2019 00:00:00 8,2 6,3 8,0 9,4 8,8 9 5 16 9 E 1032,3 44 0 0,0
21.03.2019 23:00:00 8,5 6,3 8,2 9,3 8,8 6 3 12 6 E 1032,4 48 0 0,0
21.03.2019 22:00:00 8,8 7,1 8,4 9,4 8,8 4 2 10 5 E 1032,5 40 0 0,0
21.03.2019 21:00:00 8,7 7,5 8,4 9,3 8,8 2 1 4 2 ESE 1032,9 20 0 0,0
21.03.2019 20:00:00 8,9 7,7 8,6 9,3 8,8 0 0 10 5 N 1032,9 34 0 0,0
21.03.2019 19:00:00 9,3 7,4 9,2 9,3 8,8 4 2 8 4 ENE 1032,9 41 0 0,0
21.03.2019 18:00:00 9,7 7,8 10,4 9,3 8,8 4 2 9 5 NE 1032,8 47 0 0,0
21.03.2019 17:00:00 9,8 8,1 11,3 9,2 8,8 5 3 14 7 NNE 1033,1 60 0 0,0
21.03.2019 16:00:00 10,4 8,3 12,2 9,1 8,8 7 4 18 10 N 1033,4 60 0 0,0
21.03.2019 15:00:00 10,8 8,0 13,4 9,0 8,8 11 6 16 9 WNW 1033,9 60 0 0,0
21.03.2019 14:00:00 11,2 8,2 14,4 8,9 8,8 10 6 15 8 NW 1034,6 60 0 0,0
21.03.2019 13:00:00 11,1 8,7 13,5 8,9 8,7 6 3 14 7 WNW 1035,1 60 0 0,0
21.03.2019 12:00:00 10,3 8,6 10,4 8,9 8,8 6 3 11 6 NW 1035,2 59 0 0,0
21.03.2019 11:00:00 9,3 8,8 9,5 8,9 8,8 8 4 15 8 NW 1035,6 9 0 0,2
21.03.2019 10:00:00 9,8 9,0 10,1 8,8 8,7 5 3 10 5 WSW 1035,5 10 0 0,0
21.03.2019 09:00:00 9,2 8,7 8,7 8,9 8,8 4 2 7 4 SSW 1035,2 8 0 0,0
21.03.2019 08:00:00 8,5 8,2 7,9 8,8 8,7 4 2 5 3 SSW 1035,1 6 0 0,0
21.03.2019 07:00:00 8,2 7,9 7,9 8,9 8,8 3 2 6 4 S 1034,7 5 0 0,0
21.03.2019 06:00:00 8,3 7,9 7,9 8,9 8,7 3 2 9 5 S 1034,6 3,6 0 0,0
21.03.2019 05:00:00 8,5 7,7 8,1 8,9 8,7 4 2 14 8 WSW 1034,4 10 0 0,0
21.03.2019 04:00:00 8,6 7,7 8,2 8,9 8,7 7 4 12 6 WSW 1034,5 33 0 0,0
21.03.2019 03:00:00 8,4 7,6 8,1 8,9 8,7 4 2 9 5 SW 1034,9 39 0 0,0
21.03.2019 02:00:00 8,4 8,0 8,1 8,9 8,7 6 4 16 9 W 1035,2 13 0 0,0
21.03.2019 01:00:00 8,4 8,1 8,2 8,9 8,7 5 3 20 11 W 1035,3 9 0 0,0
21.03.2019 00:00:00 8,7 8,2 8,5 9,0 8,7 8 4 19 10 WNW 1035,3 6 0 0,0
20.03.2019 23:00:00 9,2 8,3 8,8 9,0 8,7 7 4 14 8 W 1035,3 15 0 0,0
20.03.2019 22:00:00 9,2 7,5 9,0 8,9 8,7 10 5 16 9 W 1035,4 20 0 0,0
20.03.2019 21:00:00 9,4 8,0 9,1 8,9 8,7 9 5 18 10 W 1035,2 49 0 0,0
20.03.2019 20:00:00 9,5 8,6 9,1 8,9 8,7 10 6 18 10 W 1034,9 11 0 0,0
20.03.2019 19:00:00 9,8 7,7 9,6 8,9 8,7 8 4 18 10 W 1034,6 60 0 0,0
20.03.2019 18:00:00 10,3 8,1 10,4 8,8 8,7 9 5 16 9 WSW 1034,2 60 0 0,0
20.03.2019 17:00:00 10,6 8,4 10,9 8,8 8,7 11 6 19 11 W 1034,2 60 0 0,0
20.03.2019 16:00:00 11,0 8,6 11,7 8,7 8,7 14 7 22 12 W 1034,1 60 0 0,0
20.03.2019 15:00:00 10,9 8,6 11,7 8,7 8,7 16 8 23 13 WSW 1034,3 60 0 0,0
20.03.2019 14:00:00 11,1 8,7 11,9 8,6 8,7 14 8 25 13 WSW 1034,7 58 0 0,0
20.03.2019 13:00:00 11,4 9,5 11,5 8,5 8,7 18 10 26 14 WSW 1034,8 19 7 0,0
20.03.2019 12:00:00 11,0 9,4 12,9 8,5 8,7 16 9 24 13 SW 1034,7 19 22 0,0
20.03.2019 11:00:00 10,7 9,1 11,6 8,4 8,7 16 9 23 12 SW 1034,6 50 12 0,0
20.03.2019 10:00:00 9,6 8,8 10,1 8,4 8,7 15 8 19 10 SW 1034,5 18 3 0,0
20.03.2019 09:00:00 9,0 8,9 8,5 8,4 8,7 10 5 16 9 SSW 1034,2 4,1 0 0,0
20.03.2019 08:00:00 8,1 8,1 6,7 8,4 8,7 10 6 19 10 SW 1033,7 9 9 0,0
20.03.2019 07:00:00 7,1 7,1 6,6 8,5 8,7 10 5 14 8 SW 1033,2 10 0 0,0
20.03.2019 06:00:00 7,0 7,0 6,5 8,5 8,7 8 5 16 9 SW 1032,8 5 0 0,0
20.03.2019 05:00:00 6,8 6,8 5,0 8,5 8,7 13 7 17 9 SW 1032,6 1,5 0 0,0
20.03.2019 04:00:00 6,2 6,2 2,8 8,6 8,7 13 7 17 9 SW 1032,6 6 0 0,0
20.03.2019 03:00:00 5,1 5,1 1,8 8,6 8,7 9 5 16 9 SSW 1032,9 0,4 0 0,0
20.03.2019 02:00:00 5,8 5,5 4,5 8,7 8,7 10 6 18 10 WSW 1032,9 5 0 0,0
20.03.2019 01:00:00 6,7 6,6 4,9 8,7 8,7 11 6 16 9 SW 1033,0 3,7 0 0,0
20.03.2019 00:00:00 6,3 6,2 2,9 8,8 8,7 10 6 15 8 WSW 1033,0 3,7 0 0,0
19.03.2019 23:00:00 6,4 6,3 3,3 8,8 8,7 8 4 11 6 SSW 1032,2 1,2 0 0,0
19.03.2019 22:00:00 7,3 7,0 5,1 8,8 8,7 9 5 14 8 W 1032,3 10 0 0,0
19.03.2019 21:00:00 6,8 6,5 4,8 8,8 8,7 8 4 14 8 WSW 1031,9 10 0 0,0
19.03.2019 20:00:00 7,3 6,9 6,2 8,8 8,7 10 5 18 10 SSW 1031,4 9 0 0,0
19.03.2019 19:00:00 8,7 7,8 8,9 8,7 8,7 13 7 21 11 SSW 1030,6 16 26 0,0
19.03.2019 18:00:00 9,1 8,0 9,3 8,7 8,7 15 8 24 13 WSW 1030,1 15 0 0,0
19.03.2019 17:00:00 10,3 7,2 10,9 8,6 8,7 17 9 24 13 W 1029,8 59 3 0,0
19.03.2019 16:00:00 11,2 6,7 11,9 8,6 8,7 12 6 19 10 W 1029,7 60 0 0,0
19.03.2019 15:00:00 11,5 5,8 11,7 8,5 8,7 11 6 16 8 WSW 1029,5 60 0 0,0
19.03.2019 14:00:00 10,7 5,7 11,9 8,4 8,7 11 6 16 9 WSW 1029,8 60 0 0,0
19.03.2019 13:00:00 11,1 5,2 12,2 8,4 8,7 9 5 14 8 W 1029,8 20 1 0,0
19.03.2019 12:00:00 10,5 4,4 9,9 8,4 8,7 8 4 16 9 WNW 1029,6 60 0 0,0
19.03.2019 11:00:00 10,0 4,8 9,6 8,3 8,7 9 5 16 9 W 1029,3 60 0 0,0
19.03.2019 10:00:00 8,6 7,2 8,2 8,3 8,7 8 4 13 7 S 1029,1 46 0 0,0
19.03.2019 09:00:00 7,6 7,0 6,8 8,4 8,7 5 3 9 5 S 1028,5 26 0 0,0
19.03.2019 08:00:00 6,9 6,5 6,4 8,4 8,7 6 3 9 5 S 1028,2 14 0 0,2
19.03.2019 07:00:00 6,8 6,2 6,1 8,4 8,7 5 3 10 5 SSW 1027,6 10 0 0,2
19.03.2019 06:00:00 6,7 5,5 6,0 8,4 8,7 8 4 16 9 SW 1027,2 60 0 0,0
19.03.2019 05:00:00 7,5 6,9 7,0 8,4 8,7 6 4 14 8 W 1026,8 9 0 0,2
19.03.2019 04:00:00 7,5 6,8 7,1 8,4 8,7 7 4 12 7 W 1026,6 53 0 0,0
19.03.2019 03:00:00 7,6 6,7 7,2 8,4 8,7 6 4 11 6 W 1026,6 60 0 0,0
19.03.2019 02:00:00 7,7 6,5 7,2 8,4 8,7 6 3 11 6 NW 1026,6 60 0 0,0
19.03.2019 01:00:00 7,9 6,4 7,3 8,4 8,7 7 4 14 7 NW 1026,4 60 0 0,0
19.03.2019 00:00:00 7,8 6,4 7,1 8,5 8,7 6 3 17 9 NW 1026,1 60 0 0,0
18.03.2019 23:00:00 7,7 6,9 6,8 8,5 8,7 8 4 17 9 NW 1026,0 19 0 0,0
18.03.2019 22:00:00 7,6 6,7 7,1 8,5 8,7 11 6 24 13 WNW 1025,6 19 0 0,0
18.03.2019 21:00:00 7,7 6,5 7,0 8,4 8,7 17 9 30 16 WNW 1025,1 56 0 0,0
18.03.2019 20:00:00 7,7 6,3 7,2 8,5 8,7 16 9 29 15 WNW 1024,9 57 0 0,0
18.03.2019 19:00:00 7,7 5,7 7,4 8,4 8,7 20 11 30 16 WNW 1024,6 60 20 0,0
18.03.2019 18:00:00 7,8 5,1 7,2 8,4 8,7 18 10 29 16 WNW 1024,3 20 0 0,0
18.03.2019 17:00:00 7,6 5,1 6,9 8,3 8,7 20 11 44 24 WNW 1024,1 60 0 0,2
18.03.2019 16:00:00 8,8 4,2 10,1 8,2 8,7 19 10 36 20 WNW 1024,0 55 38 0,0
18.03.2019 15:00:00 9,8 5,8 11,6 8,1 8,7 25 14 39 21 WNW 1023,6 19 49 0,0
18.03.2019 14:00:00 9,9 6,1 12,5 8,1 8,7 26 14 38 20 WNW 1023,9 19 60 0,0
18.03.2019 13:00:00 9,4 5,2 10,8 8,0 8,7 24 13 35 19 WNW 1024,1 20 43 0,0
18.03.2019 12:00:00 8,9 5,8 8,2 8,0 8,7 18 10 34 18 WNW 1024,0 19 10 0,0
18.03.2019 11:00:00 8,7 5,1 9,6 7,9 8,7 18 10 35 19 NW 1023,8 17 38 0,0
18.03.2019 10:00:00 8,8 4,8 8,9 7,9 8,7 21 11 36 19 WNW 1023,3 19 53 0,0
18.03.2019 09:00:00 8,0 4,2 7,3 7,9 8,7 21 11 34 18 WNW 1022,8 18 40 0,0
18.03.2019 08:00:00 7,2 4,7 6,3 8,0 8,7 19 10 33 18 WNW 1022,3 19 5 0,0
18.03.2019 07:00:00 7,1 5,1 6,2 8,0 8,7 22 12 38 20 WNW 1021,7 18 0 0,0
18.03.2019 06:00:00 7,3 4,8 6,4 8,0 8,7 20 11 42 23 NW 1021,1 18 0 0,0
18.03.2019 05:00:00 7,5 3,9 6,5 8,0 8,7 20 11 39 21 NW 1020,7 20 0 0,0
18.03.2019 04:00:00 7,8 3,6 6,6 8,0 8,7 18 10 42 23 NW 1020,3 19 0 0,0
18.03.2019 03:00:00 8,2 4,8 6,7 8,1 8,7 23 13 42 23 NW 1019,9 20 0 0,0
18.03.2019 02:00:00 7,9 4,7 6,7 8,1 8,7 23 12 39 21 WNW 1019,3 20 0 0,0
18.03.2019 01:00:00 7,9 5,7 6,5 8,1 8,7 25 14 42 23 WNW 1018,5 17 0 0,0
18.03.2019 00:00:00 7,7 4,8 6,4 8,1 8,7 20 11 51 27 NW 1018,1 20 0 0,0
17.03.2019 23:00:00 7,8 3,6 4,6 8,2 8,7 28 15 52 28 NW 1017,5 20 0 0,0

tt = Température de l'air
td = dewpoint
tt 5cm = Température de l'air 5cm
tt -20cm = Température de l'air -20cm
tt -100cm = Température de l'air -100cm
ff = Vitesse du vent
fx = gusts
dd = Direction du vent
ppp = reduced air pressure
vv = visibility
sd = Ensoleillement
rr = Quantités de précipitations

stations d'obs. à proximité